Stations météo

réclame
Mon MeteoGroup
Florennes, Belgique (6456): Température de l'air & dewpoint: 18.08.2019 00:00:00 - 24.08.2019 00:00:00 (CEST)Florennes, Belgique (6456): Vitesse du vent & gusts: 18.08.2019 00:00:00 - 24.08.2019 00:00:00 (CEST)Florennes, Belgique (6456): Direction du vent: 18.08.2019 00:00:00 - 24.08.2019 00:00:00 (CEST)Florennes, Belgique (6456): reduced air pressure: 18.08.2019 00:00:00 - 24.08.2019 00:00:00 (CEST)Florennes, Belgique (6456): visibility: 18.08.2019 00:00:00 - 24.08.2019 00:00:00 (CEST)
Date & Time tt [°C] td [°C] ff [km/h] ff [knt] fx [km/h] fx [knt] dd ppp [hPa] vv [km]
24.08.2019 00:00:00 18,2 11,3 4 2 7 4 N 1022,5 20
23.08.2019 23:00:00 19,5 11,7 7 4 - - NE 1022,3 20
23.08.2019 22:00:00 19,5 12,2 4 2 11 6 N 1022,7 20
23.08.2019 21:00:00 20,8 12,7 4 2 18 10 N 1022,5 18
23.08.2019 20:00:00 22,7 13,5 14 8 - - NNE 1022,1 20
23.08.2019 19:00:00 24,3 12,5 7 4 18 10 NNE 1022,1 20
23.08.2019 18:00:00 25,5 11,7 7 4 18 10 NNE 1022,2 20
23.08.2019 17:00:00 26,0 10,8 7 4 - - ENE 1022,6 19
23.08.2019 16:00:00 25,5 10,3 11 6 22 12 NE 1023,1 10
23.08.2019 15:00:00 25,6 9,2 11 6 18 10 NE 1023,5 20
23.08.2019 14:00:00 24,3 10,1 11 6 - - ESE 1024,0 20
23.08.2019 13:00:00 23,6 10,7 11 6 22 12 E 1024,5 20
23.08.2019 12:00:00 22,7 10,7 11 6 18 10 ENE 1025,0 18
23.08.2019 11:00:00 20,5 11,9 11 6 - - NE 1025,7 15
23.08.2019 10:00:00 18,4 11,9 7 4 11 6 ENE 1025,9 14
23.08.2019 09:00:00 15,4 12,2 7 4 7 4 NE 1026,2 12
23.08.2019 08:00:00 13,6 10,9 4 2 - - N 1026,4 12
23.08.2019 07:00:00 12,7 10,4 4 2 7 4 N 1026,4 12
23.08.2019 06:00:00 13,1 10,6 4 2 4 2 N 1026,4 12
23.08.2019 05:00:00 13,7 10,1 4 2 - - N 1026,5 11
23.08.2019 04:00:00 13,5 9,5 4 2 4 2 N 1026,5 20
23.08.2019 03:00:00 14,6 9,2 4 2 4 2 N 1026,5 20
23.08.2019 02:00:00 14,6 8,7 4 2 - - N 1026,7 20
23.08.2019 01:00:00 15,8 8,3 4 2 7 4 N 1026,7 20
23.08.2019 00:00:00 16,5 8,8 4 2 7 4 N 1026,5 17
22.08.2019 23:00:00 17,1 9,1 4 2 - - N 1026,2 20
22.08.2019 22:00:00 17,7 9,4 4 2 11 6 N 1026,0 20
22.08.2019 21:00:00 19,2 9,5 7 4 11 6 W 1025,4 20
22.08.2019 20:00:00 21,7 9,2 11 6 - - WNW 1024,7 20
22.08.2019 19:00:00 23,1 9,3 7 4 11 6 WSW 1024,4 20
22.08.2019 18:00:00 23,5 10,0 4 2 14 8 N 1024,2 20
22.08.2019 17:00:00 23,7 10,0 4 2 - - N 1024,5 20
22.08.2019 16:00:00 24,1 10,1 7 4 18 10 W 1024,7 20
22.08.2019 15:00:00 24,0 10,2 7 4 18 10 WSW 1025,0 20
22.08.2019 14:00:00 23,4 9,4 4 2 - - N 1025,4 20
22.08.2019 13:00:00 22,4 8,9 7 4 18 10 SSW 1025,7 20
22.08.2019 12:00:00 21,2 9,9 7 4 22 12 SW 1026,0 20
22.08.2019 11:00:00 20,7 11,5 7 4 - - SSW 1026,0 20
22.08.2019 10:00:00 18,8 9,6 4 2 7 4 N 1026,2 20
22.08.2019 09:00:00 15,8 11,2 4 2 4 2 N 1026,4 20
22.08.2019 08:00:00 13,1 10,1 4 2 - - N 1026,5 20
22.08.2019 07:00:00 10,3 8,7 4 2 4 2 N 1026,4 20
22.08.2019 06:00:00 10,1 8,8 4 2 7 4 N 1026,2 20
22.08.2019 05:00:00 11,3 8,9 4 2 - - N 1026,2 20
22.08.2019 04:00:00 12,4 9,7 4 2 7 4 N 1026,0 20
22.08.2019 03:00:00 12,3 9,3 4 2 7 4 N 1026,2 20
22.08.2019 02:00:00 14,1 9,3 4 2 - - N 1026,2 20
22.08.2019 01:00:00 13,8 9,5 4 2 0 0 N 1026,7 20
22.08.2019 00:00:00 14,9 9,5 4 2 0 0 N 1026,7 20
21.08.2019 23:00:00 14,8 9,8 4 2 - - N 1026,9 20
21.08.2019 22:00:00 16,7 10,4 4 2 4 2 N 1026,7 20
21.08.2019 21:00:00 17,8 11,4 2 1 11 6 - 1026,2 4,9
21.08.2019 20:00:00 20,2 9,6 7 4 - - NE 1025,7 20
21.08.2019 19:00:00 21,1 8,8 4 2 11 6 N 1025,7 20
21.08.2019 18:00:00 21,2 8,5 5 3 11 6 NNE 1026,0 3,8
21.08.2019 17:00:00 21,5 8,2 4 2 - - N 1026,2 20
21.08.2019 16:00:00 21,5 7,8 4 2 11 6 N 1026,5 20
21.08.2019 15:00:00 20,9 8,2 4 2 18 10 N 1026,9 20
21.08.2019 14:00:00 19,7 7,6 4 2 - - N 1027,5 20
21.08.2019 13:00:00 19,1 7,8 7 4 14 8 S 1028,0 20
21.08.2019 12:00:00 18,2 6,9 7 4 14 8 SE 1028,5 20
21.08.2019 11:00:00 16,5 10,1 4 2 - - N 1028,9 20
21.08.2019 10:00:00 14,5 9,9 4 2 7 4 N 1029,2 20
21.08.2019 09:00:00 13,3 9,6 4 2 4 2 N 1029,2 20
21.08.2019 08:00:00 11,6 9,2 4 2 - - N 1029,0 20
21.08.2019 07:00:00 9,4 7,6 2 1 4 2 - 1029,0 10
21.08.2019 06:00:00 9,8 7,6 4 2 4 2 N 1028,7 20
21.08.2019 05:00:00 10,1 7,7 4 2 - - N 1028,5 20
21.08.2019 04:00:00 10,3 7,9 4 2 7 4 N 1028,7 20
21.08.2019 03:00:00 10,8 8,2 4 2 7 4 N 1028,5 20
21.08.2019 02:00:00 12,0 8,2 7 4 - - WSW 1028,4 20
21.08.2019 01:00:00 12,1 8,6 7 4 11 6 W 1028,2 20
21.08.2019 00:00:00 12,8 8,7 7 4 11 6 WSW 1027,9 20
20.08.2019 23:00:00 13,5 8,6 7 4 - - WSW 1027,4 20
20.08.2019 22:00:00 14,5 8,3 7 4 11 6 WSW 1026,9 20
20.08.2019 21:00:00 15,7 7,3 7 4 18 10 W 1026,2 20
20.08.2019 20:00:00 18,2 8,2 7 4 - - WSW 1025,2 20
20.08.2019 19:00:00 18,5 9,3 14 8 25 14 W 1024,7 20
20.08.2019 18:00:00 19,3 6,7 18 10 32 18 W 1024,2 20
20.08.2019 17:00:00 19,2 7,7 18 10 - - WSW 1024,2 20
20.08.2019 16:00:00 20,0 7,7 11 6 25 14 W 1023,7 20
20.08.2019 15:00:00 18,9 8,8 14 8 25 14 WSW 1023,7 20
20.08.2019 14:00:00 19,3 9,4 18 10 - - WSW 1023,2 20
20.08.2019 13:00:00 16,7 9,3 14 8 22 12 WSW 1023,8 20
20.08.2019 12:00:00 16,7 9,4 14 8 22 12 WSW 1023,8 20
20.08.2019 11:00:00 16,1 11,7 14 8 - - WSW 1023,6 20
20.08.2019 10:00:00 15,1 11,8 7 4 14 8 SW 1023,2 20
20.08.2019 09:00:00 13,1 11,2 7 4 11 6 SSW 1023,7 20
20.08.2019 08:00:00 12,1 10,7 4 2 - - N 1023,1 20
20.08.2019 07:00:00 10,6 9,5 4 2 7 4 N 1022,8 20
20.08.2019 06:00:00 10,6 9,3 4 2 4 2 N 1022,5 20
20.08.2019 05:00:00 10,9 9,4 4 2 - - N 1022,2 20
20.08.2019 04:00:00 12,2 9,9 7 4 11 6 SW 1022,1 20
20.08.2019 03:00:00 12,5 9,3 7 4 11 6 WSW 1021,8 20
20.08.2019 02:00:00 13,0 8,8 7 4 - - SW 1021,8 20
20.08.2019 01:00:00 13,1 9,2 7 4 7 4 N 1022,1 20
20.08.2019 00:00:00 13,6 9,6 7 4 7 4 WSW 1021,5 20
19.08.2019 23:00:00 14,0 10,0 4 2 - - N 1020,8 20
19.08.2019 22:00:00 14,9 10,6 7 4 14 8 SW 1020,6 20
19.08.2019 21:00:00 16,1 11,0 11 6 18 10 W 1019,7 20
19.08.2019 20:00:00 17,8 9,1 11 6 - - SW 1018,7 20
19.08.2019 19:00:00 19,2 8,8 18 10 32 18 SW 1018,5 20
19.08.2019 18:00:00 19,8 9,3 18 10 32 18 SW 1018,2 20
19.08.2019 17:00:00 19,5 9,1 22 12 - - SSW 1018,2 20
19.08.2019 16:00:00 20,1 10,0 18 10 36 19 SW 1018,1 20
19.08.2019 15:00:00 18,6 10,5 22 12 43 23 WSW 1018,1 20
19.08.2019 14:00:00 19,0 9,2 25 14 - - SW 1017,7 20
19.08.2019 13:00:00 18,4 9,4 25 14 36 19 SW 1017,6 20
19.08.2019 12:00:00 17,4 9,2 22 12 32 18 SW 1017,3 20
19.08.2019 11:00:00 16,2 10,2 22 12 - - SW 1017,2 20
19.08.2019 10:00:00 15,0 11,3 14 8 29 16 WSW 1016,7 20
19.08.2019 09:00:00 13,6 11,0 14 8 22 12 SW 1016,8 20
19.08.2019 08:00:00 11,9 9,9 14 8 - - SSW 1016,8 20
19.08.2019 07:00:00 11,3 9,6 11 6 18 10 SW 1016,4 20
19.08.2019 06:00:00 - - - - - - - - -
19.08.2019 05:00:00 - - - - - - - - -
19.08.2019 04:00:00 - - - - - - - - -
19.08.2019 03:00:00 - - - - - - - - -
19.08.2019 02:00:00 - - - - - - - - -
19.08.2019 01:00:00 - - - - - - - - -
19.08.2019 00:00:00 - - - - - - - - -
18.08.2019 23:00:00 - - - - - - - - -
18.08.2019 22:00:00 - - - - - - - - -
18.08.2019 21:00:00 - - - - - - - - -
18.08.2019 20:00:00 - - - - - - - - -
18.08.2019 19:00:00 - - - - - - - - -
18.08.2019 18:00:00 - - - - - - - - -
18.08.2019 17:00:00 - - - - - - - - -
18.08.2019 16:00:00 - - - - - - - - -
18.08.2019 15:00:00 - - - - - - - - -
18.08.2019 14:00:00 - - - - - - - - -
18.08.2019 13:00:00 - - - - - - - - -
18.08.2019 12:00:00 - - - - - - - - -
18.08.2019 11:00:00 - - - - - - - - -
18.08.2019 10:00:00 - - - - - - - - -
18.08.2019 09:00:00 - - - - - - - - -
18.08.2019 08:00:00 - - - - - - - - -
18.08.2019 07:00:00 - - - - - - - - -
18.08.2019 06:00:00 - - - - - - - - -
18.08.2019 05:00:00 - - - - - - - - -
18.08.2019 04:00:00 - - - - - - - - -
18.08.2019 03:00:00 - - - - - - - - -
18.08.2019 02:00:00 - - - - - - - - -
18.08.2019 01:00:00 - - - - - - - - -
18.08.2019 00:00:00 - - - - - - - - -

tt = Température de l'air
td = dewpoint
ff = Vitesse du vent
fx = gusts
dd = Direction du vent
ppp = reduced air pressure
vv = visibility

stations d'obs. à proximité